This demonstration page uses our WeatherBlox Daily Observations layout. Learn more.

Left ArrowRight Arrow

Hourly Observations for December 28, 2017

Temp ( °F °C ) Dew Point ( °F °C ) Humidity (%) Winds ( mph kmh ) Pressure ( in mb ) Visibility ( mi km ) Precip ( " mm )
12:53 am 00:53 Cloudy 30 -1.1 28 -2.2 92 92 ESE 6 9 30.36 1028 10 16 0.00 0.00
1:53 am 01:53 Cloudy 30 -1.1 28 -2.2 92 92 SE 5 7 30.34 1027 10 16 0.00 0.00
2:53 am 02:53 Cloudy 30 -1.1 28 -2.2 92 92 S 5 7 30.33 1027 10 16 0.00 0.00
3:53 am 03:53 Cloudy 30 -1.1 28 -2.2 92 92 VRB 3 6 30.32 1027 10 16 0.00 0.00
4:53 am 04:53 Cloudy 30 -1.1 29 -1.7 96 96 WSW 5 7 30.30 1026 9 14 0.00 0.00
5:39 am 05:39 Cloudy with Mist and Fog 29 -1.7 28 -2.2 96 96 W 6 9 30.39 1029 2 3 0.00 0.00
5:53 am 05:53 Cloudy with Mist and Fog 29 -1.7 29 -1.7 100 100 SW 3 6 30.30 1026 1 2 0.00 0.00
6:07 am 06:07 Cloudy with Mist and Fog 29 -1.7 29 -1.7 100 100 SW 6 9 30.39 1029 3 4 0.00 0.00
6:16 am 06:16 Cloudy with Mist and Fog 29 -1.7 28 -2.2 96 96 VRB 5 7 30.39 1029 1 2 0.00 0.00
6:38 am 06:38 Mostly Cloudy with Mist and Fog 29 -1.7 28 -2.2 96 96 SW 6 9 30.39 1029 1 1 0.00 0.00
6:53 am 06:53 Mostly Cloudy with Mist and Fog 29 -1.7 28 -2.2 96 96 WSW 6 9 30.30 1026 1 1 0.00 0.00
7:53 am 07:53 Mostly Cloudy with Mist and Fog 28 -2.2 28 -2.2 100 100 NW 7 11 30.32 1027 1 2 0.00 0.00
8:09 am 08:09 Cloudy with Mist and Fog 28 -2.2 27 -2.8 96 96 W 3 6 30.39 1029 2 3 0.00 0.00
8:35 am 08:35 Cloudy with Mist and Fog 28 -2.2 28 -2.2 100 100 W 3 6 30.42 1030 1 2 0.00 0.00
8:53 am 08:53 Cloudy with Mist and Fog 28 -2.2 28 -2.2 100 100 WNW 7 11 30.33 1027 1 2 0.00 0.00
9:53 am 09:53 Cloudy with Mist and Fog 29 -1.7 28 -2.2 96 96 WSW 5 7 30.34 1027 2 3 0.00 0.00
10:05 am 10:05 Cloudy with Mist and Fog 29 -1.7 28 -2.2 96 96 SW 3 6 30.42 1030 4 6 0.00 0.00
10:53 am 10:53 Cloudy 31 -0.6 28 -2.2 89 89 undefined N/A 30.35 1028 9 14 0.00 0.00
11:03 am 11:03 Cloudy 31 -0.6 28 -2.2 89 89 undefined N/A 30.45 1031 10 16 0.00 0.00
11:53 am 11:53 Cloudy 34 1.1 29 -1.7 82 82 W 6 9 30.34 1027 10 16 0.00 0.00
12:21 pm 12:21 Partly Cloudy 37 2.8 29 -1.7 73 73 W 7 11 30.36 1028 10 16 0.00 0.00
12:53 pm 12:53 Sunny 38 3.3 29 -1.7 70 70 W 5 7 30.29 1026 10 16 0.00 0.00
1:53 pm 13:53 Sunny 43 6.1 28 -2.2 56 56 SW 6 9 30.23 1024 10 16 0.00 0.00
2:53 pm 14:53 Sunny 48 8.9 29 -1.7 48 48 SW 6 9 30.20 1023 10 16 0.00 0.00
3:53 pm 15:53 Sunny 51 10.6 29 -1.7 43 43 SSW 7 11 30.18 1022 10 16 0.00 0.00
4:53 pm 16:53 Sunny 51 10.6 29 -1.7 43 43 S 5 7 30.19 1022 10 16 0.00 0.00
5:53 pm 17:53 Sunny 44 6.7 29 -1.7 55 55 SSE 9 15 30.21 1023 10 16 0.00 0.00
6:53 pm 18:53 Clear 37 2.8 29 -1.7 73 73 S 9 15 30.22 1023 10 16 0.00 0.00
7:53 pm 19:53 Clear 33 0.6 28 -2.2 82 82 SSE 7 11 30.24 1024 10 16 0.00 0.00
8:53 pm 20:53 Clear 32 0 28 -2.2 85 85 E 7 11 30.26 1025 10 16 0.00 0.00
9:53 pm 21:53 Clear 29 -1.7 27 -2.8 92 92 E 3 6 30.26 1025 10 16 0.00 0.00
10:53 pm 22:53 Clear 30 -1.1 28 -2.2 92 92 ENE 6 9 30.27 1025 10 16 0.00 0.00
11:53 pm 23:53 Clear 30 -1.1 28 -2.2 92 92 NE 8 13 30.28 1026 10 16 0.00 0.00

Powered by AerisWeather